This demonstration page uses our WeatherBlox Daily Observations layout. Learn more.

40.92945, -100.16068

Hourly Observations for June 2, 2019

Temp ( °F °C ) Dew Point ( °F °C ) Humidity (%) Winds ( mph kmh ) Pressure ( in mb ) Visibility ( mi km ) Precip ( " mm )
12:15 am 00:15 Clear 58 14.4 53 11.5 83 83 ENE 8 13 30 1016 10 16.09344 0 0
12:35 am 00:35 Clear 57 14 52 11.3 84 84 ENE 7 11 30 1016 10 16.09344 0 0
12:55 am 00:55 Clear 57 13.7 51 10.8 83 83 ENE 8 13 30 1016 10 16.09344 0 0
1:15 am 01:15 Clear 56 13.2 51 10.5 84 84 E 6 9 30.03 1017 10 16.09344 0 0
1:35 am 01:35 Clear 55 13 50 10.1 83 83 E 6 9 30.03 1017 10 16.09344 0 0
1:55 am 01:55 Clear 55 12.5 50 10 85 85 E 6 9 30.03 1017 10 16.09344 0 0
2:15 am 02:15 Clear 55 12.7 49 9.6 82 82 ESE 3 6 30.03 1017 10 16.09344 0 0
2:35 am 02:35 Clear 54 12.1 49 9.6 85 85 E 5 7 30.03 1017 10 16.09344 0 0
2:55 am 02:55 Clear 52 11.3 49 9.7 90 90 E 5 7 30.03 1017 10 16.09344 0 0
3:15 am 03:15 Clear 52 11.3 49 9.5 89 89 E 3 6 30.03 1017 10 16.09344 0 0
3:35 am 03:35 Clear 54 12 49 9.3 84 84 E 3 6 30.03 1017 10 16.09344 0 0
3:55 am 03:55 Clear 53 11.5 49 9.3 86 86 SSE 5 7 30.03 1017 10 16.09344 0 0
4:15 am 04:15 Partly Cloudy 53 11.5 49 9.5 88 88 SE 5 7 30.03 1017 10 16.09344 0 0
4:35 am 04:35 Clear 51 10.8 49 9.4 91 91 E 6 9 30.03 1017 10 16.09344 0 0
4:55 am 04:55 Clear 52 11 49 9.3 89 89 E 6 9 30.03 1017 10 16.09344 0 0
5:15 am 05:15 Mostly Cloudy 51 10.5 49 9.5 94 94 E 5 7 30.03 1017 10 16.09344 0 0
5:35 am 05:35 Partly Cloudy 50 10.2 49 9.4 95 95 Calm 30.06 1018 10 16.09344 0 0
5:55 am 05:55 Clear 50 10.1 48 9.1 94 94 Calm 30.06 1018 10 16.09344 0 0
6:15 am 06:15 Sunny 50 10.2 49 9.4 95 95 Calm 30.06 1018 10 16.09344 0 0
6:35 am 06:35 Sunny 50 9.9 49 9.3 96 96 NNE 3 6 30.06 1018 7 11.265408 0 0
6:55 am 06:55 Sunny 50 10 49 9.5 97 97 Calm 30.06 1018 7 11.265408 0 0
7:15 am 07:15 Sunny 52 11.1 51 10.5 96 96 W 5 7 30.06 1018 7 11.265408 0 0
7:35 am 07:35 Sunny 54 12 52 11 94 94 Calm 30.06 1018 7 11.265408 0 0
7:55 am 07:55 Sunny 55 13 52 11 88 88 Calm 30.06 1018 10 16.09344 0 0
8:15 am 08:15 Sunny 58 14.5 51 10.8 79 79 S 6 9 30.03 1017 10 16.09344 0 0
8:35 am 08:35 Sunny 59 15.1 49 9.7 70 70 SE 7 11 30.03 1017 10 16.09344 0 0
8:55 am 08:55 Sunny 59 15.1 51 10.3 73 73 ESE 6 9 30.03 1017 10 16.09344 0 0
9:15 am 09:15 Sunny 61 16 51 10.4 70 70 ESE 7 11 30.03 1017 10 16.09344 0 0
9:35 am 09:35 Sunny 62 16.6 51 10.4 67 67 SE 9 15 30.03 1017 10 16.09344 0 0
9:55 am 09:55 Sunny 63 17.4 53 11.7 69 69 SE 7 11 30 1016 10 16.09344 0 0
10:15 am 10:15 Sunny 64 18 52 11.3 65 65 ESE 7 11 30 1016 10 16.09344 0 0
10:35 am 10:35 Sunny 65 18.5 53 11.9 66 66 ESE 6 9 30 1016 10 16.09344 0 0
10:55 am 10:55 Sunny 67 19.2 53 11.5 61 61 SSE 7 11 30 1016 10 16.09344 0 0
11:15 am 11:15 Sunny 67 19.7 54 12.1 62 62 SE 10 17 29.97 1015 10 16.09344 0 0
11:35 am 11:35 Sunny 69 20.4 54 12.3 60 60 SSE 8 13 29.94 1014 10 16.09344 0 0
11:55 am 11:55 Sunny 69 20.7 53 11.5 56 56 SE 9 15 29.94 1014 10 16.09344 0 0
12:15 pm 12:15 Sunny 70 21.3 53 11.7 54 54 SE 10 17 29.94 1014 10 16.09344 0 0
12:35 pm 12:35 Sunny 71 21.5 54 12.3 56 56 SE 15 24 29.94 1014 10 16.09344 0 0
12:55 pm 12:55 Sunny 72 22.1 55 12.5 55 55 ESE 10 17 29.94 1014 10 16.09344 0 0
1:15 pm 13:15 Sunny 73 22.5 55 12.7 54 54 SE 12 19 29.94 1014 10 16.09344 0 0
1:35 pm 13:35 Sunny 73 22.9 55 12.5 52 52 SE 8 13 29.94 1014 10 16.09344 0 0
1:55 pm 13:55 Sunny 74 23.5 55 12.8 51 51 SE 8 13 29.94 1014 10 16.09344 0 0
2:15 pm 14:15 Sunny 75 24.1 57 14.1 54 54 SSE 12 19 29.91 1013 10 16.09344 0 0
2:35 pm 14:35 Sunny 75 24.1 58 14.2 54 54 S 13 20 29.91 1013 10 16.09344 0 0
2:55 pm 14:55 Sunny 75 24.1 58 14.2 54 54 SSE 12 19 29.88 1012 10 16.09344 0 0
3:15 pm 15:15 Sunny 76 24.6 59 15.1 56 56 S 10 17 29.88 1012 10 16.09344 0 0
3:35 pm 15:35 Sunny 76 24.6 58 14.6 54 54 SE 8 13 29.88 1012 10 16.09344 0 0
3:55 pm 15:55 Sunny 76 24.7 58 14.7 54 54 SSE 14 22 29.88 1012 10 16.09344 0 0
4:15 pm 16:15 Sunny 77 24.9 59 15.2 55 55 SSE 13 20 29.85 1011 10 16.09344 0 0
4:35 pm 16:35 Sunny 77 24.8 59 14.8 54 54 SSE 10 17 29.85 1011 10 16.09344 0 0
4:55 pm 16:55 Sunny 77 24.8 58 14.7 54 54 S 12 19 29.85 1011 10 16.09344 0 0
5:15 pm 17:15 Sunny 77 24.8 56 13.4 49 49 SSE 13 20 29.85 1011 10 16.09344 0 0
5:35 pm 17:35 Sunny 76 24.5 55 12.6 48 48 S 15 24 29.85 1011 10 16.09344 0 0
5:55 pm 17:55 Sunny 76 24.7 54 12.4 46 46 SSE 16 26 29.85 1011 10 16.09344 0 0
6:15 pm 18:15 Sunny 75 23.9 56 13.1 51 51 S 10 17 29.83 1010 10 16.09344 0 0
6:35 pm 18:35 Sunny 75 23.7 56 13.2 52 52 S 13 20 29.83 1010 10 16.09344 0 0
6:55 pm 18:55 Sunny 74 23.1 56 13.2 54 54 S 14 22 29.83 1010 10 16.09344 0 0
7:15 pm 19:15 Sunny 73 22.9 57 13.8 57 57 S 13 20 29.83 1010 10 16.09344 0 0
7:35 pm 19:35 Sunny 73 22.9 56 13.3 55 55 SSE 15 24 29.83 1010 10 16.09344 0 0
7:55 pm 19:55 Sunny 74 23.1 57 13.7 56 56 SSE 13 20 29.83 1010 10 16.09344 0 0
8:15 pm 20:15 Sunny 72 22.4 56 13.3 57 57 SSE 15 24 29.85 1011 10 16.09344 0 0
8:35 pm 20:35 Sunny 71 21.7 55 13 58 58 SSE 13 20 29.85 1011 7 11.265408 0 0
8:55 pm 20:55 Sunny 71 21.5 55 12.8 58 58 SSE 13 20 29.85 1011 10 16.09344 0 0
9:15 pm 21:15 Clear 70 21.1 55 12.7 59 59 SSE 14 22 29.85 1011 10 16.09344 0 0
9:35 pm 21:35 Clear 69 20.5 55 13 62 62 SSE 10 17 29.85 1011 10 16.09344 0 0
9:55 pm 21:55 Clear 69 20.4 55 13 63 63 SE 10 17 29.85 1011 10 16.09344 0 0
10:15 pm 22:15 Clear 68 19.9 56 13.1 65 65 SSE 9 15 29.85 1011 10 16.09344 0 0
10:35 pm 22:35 Clear 68 20 55 13 64 64 SE 12 19 29.88 1012 10 16.09344 0 0
10:55 pm 22:55 Clear 67 19.3 56 13.1 68 68 SE 8 13 29.91 1013 10 16.09344 0 0
11:15 pm 23:15 Clear 65 18.6 56 13.3 71 71 ESE 8 13 29.91 1013 10 16.09344 0 0
11:35 pm 23:35 Clear 65 18.3 56 13.2 72 72 SE 8 13 29.91 1013 10 16.09344 0 0
11:55 pm 23:55 Partly Cloudy 65 18.4 56 13.1 71 71 SE 9 15 29.91 1013 10 16.09344 0 0

Powered by AerisWeather